| time (UTC) | temp F | wind direction | speed knots | gust knots | rain 1hr in | rain 24hr in | rain mn in | humidity % | barometer mb |
| 20260509031821 | 55 | 191 | 0.0 | 0.0 | 0.00 | 0.00 | 0.00 | 81 | 1016.3 |
| 20260509030324 | 55 | 191 | 0.0 | 0.0 | 0.00 | 0.00 | 0.00 | 81 | 1016.2 |
| 20260509024841 | 55 | 191 | 0.0 | 0.0 | 0.00 | 0.00 | 0.00 | 80 | 1016.3 |
| 20260509023323 | 56 | 191 | 0.0 | 0.0 | 0.00 | 0.00 | 0.00 | 80 | 1016.2 |
| 20260509021821 | 56 | 191 | 0.0 | 0.0 | 0.00 | 0.00 | 0.00 | 80 | 1016.2 |
| 20260509020344 | 56 | 191 | 0.0 | 0.0 | 0.00 | 0.00 | 0.00 | 78 | 1016.5 |
| 20260509014822 | 56 | 191 | 0.0 | 0.0 | 0.00 | 0.00 | 0.00 | 78 | 1016.4 |
| 20260509013321 | 56 | 191 | 0.0 | 0.0 | 0.00 | 0.00 | 0.00 | 78 | 1016.0 |
| 20260509011823 | 56 | 191 | 0.0 | 0.0 | 0.00 | 0.00 | 0.00 | 77 | 1015.8 |
| 20260509010323 | 56 | 191 | 0.0 | 0.0 | 0.00 | 0.00 | 0.00 | 77 | 1015.9 |
| 20260509004826 | 57 | 191 | 0.0 | 0.0 | 0.00 | 0.00 | 0.00 | 76 | 1015.8 |
| 20260509003325 | 57 | 191 | 0.0 | 0.0 | 0.00 | 0.00 | 0.00 | 75 | 1015.6 |
| 20260509001827 | 58 | 191 | 0.0 | 0.0 | 0.00 | 0.00 | 0.00 | 75 | 1015.5 |
| 20260509000327 | 58 | 191 | 0.0 | 0.0 | 0.00 | 0.00 | 0.00 | 72 | 1015.4 |
| 20260508234830 | 59 | 191 | 0.0 | 0.9 | 0.00 | 0.00 | 0.00 | 73 | 1015.4 |
| 20260508233348 | 59 | 191 | 0.0 | 0.9 | 0.00 | 0.00 | 0.00 | 74 | 1015.4 |
| 20260508231845 | 60 | 191 | 0.0 | 0.0 | 0.00 | 0.00 | 0.00 | 73 | 1015.6 |
| 20260508230328 | 60 | 191 | 0.0 | 0.0 | 0.00 | 0.00 | 0.00 | 72 | 1015.5 |
| 20260508224827 | 60 | 191 | 0.0 | 0.9 | 0.00 | 0.00 | 0.00 | 70 | 1015.4 |
| 20260508223330 | 60 | 191 | 0.0 | 1.7 | 0.00 | 0.00 | 0.00 | 72 | 1015.4 |
| 20260508221828 | 60 | 191 | 0.0 | 0.9 | 0.00 | 0.00 | 0.00 | 70 | 1015.4 |
| 20260508220312 | 61 | 191 | 0.0 | 1.7 | 0.00 | 0.00 | 0.00 | 70 | 1015.4 |
| 20260508214831 | 61 | 191 | 0.0 | 2.6 | 0.00 | 0.00 | 0.00 | 67 | 1015.2 |
| 20260508213314 | 61 | 215 | 0.0 | 1.7 | 0.00 | 0.00 | 0.00 | 66 | 1015.5 |
| 20260508211852 | 61 | 288 | 0.0 | 1.7 | 0.00 | 0.00 | 0.00 | 65 | 1015.3 |
| 20260508210331 | 61 | 288 | 0.9 | 1.7 | 0.00 | 0.00 | 0.00 | 63 | 1015.3 |
| 20260508204813 | 61 | 322 | 0.0 | 1.7 | 0.00 | 0.00 | 0.00 | 66 | 1015.4 |
| 20260508203312 | 62 | 313 | 0.0 | 1.7 | 0.00 | 0.00 | 0.00 | 64 | 1015.6 |
| 20260508201836 | 62 | 313 | 0.0 | 0.9 | 0.00 | 0.00 | 0.00 | 63 | 1015.5 |
| 20260508200335 | 62 | 297 | 0.0 | 0.9 | 0.00 | 0.00 | 0.00 | 62 | 1015.6 |
| 20260508194837 | 62 | 297 | 0.0 | 1.7 | 0.00 | 0.00 | 0.00 | 63 | 1015.9 |
| 20260508193335 | 62 | 250 | 0.9 | 1.7 | 0.00 | 0.00 | 0.00 | 61 | 1016.3 |
| 20260508191812 | 62 | 95 | 1.7 | 2.6 | 0.00 | 0.00 | 0.00 | 59 | 1016.5 |
| 20260508190315 | 62 | 95 | 0.0 | 2.6 | 0.00 | 0.00 | 0.00 | 58 | 1016.6 |
| 20260508184814 | 62 | 94 | 0.9 | 1.7 | 0.00 | 0.01 | 0.00 | 60 | 1017.0 |
| 20260508183314 | 62 | 88 | 0.9 | 1.7 | 0.00 | 0.01 | 0.00 | 62 | 1017.2 |
| 20260508181812 | 62 | 90 | 0.9 | 2.6 | 0.00 | 0.01 | 0.00 | 62 | 1017.2 |
| 20260508180315 | 62 | 91 | 0.9 | 1.7 | 0.00 | 0.01 | 0.00 | 60 | 1017.3 |
| 20260508174814 | 62 | 100 | 0.0 | 1.7 | 0.00 | 0.01 | 0.00 | 57 | 1017.4 |
| 20260508173337 | 61 | 101 | 0.9 | 2.6 | 0.00 | 0.01 | 0.00 | 59 | 1017.7 |
| 20260508171813 | 61 | 82 | 0.0 | 2.6 | 0.00 | 0.01 | 0.00 | 57 | 1017.8 |
| 20260508170312 | 61 | 82 | 0.0 | 0.9 | 0.00 | 0.01 | 0.00 | 60 | 1018.2 |
| 20260508164815 | 62 | 70 | 0.9 | 1.7 | 0.00 | 0.01 | 0.00 | 63 | 1018.3 |
| 20260508163314 | 61 | 293 | 0.9 | 2.6 | 0.00 | 0.01 | 0.00 | 62 | 1018.5 |
| 20260508161817 | 59 | 49 | 0.0 | 2.6 | 0.00 | 0.01 | 0.00 | 64 | 1018.4 |
| 20260508160315 | 59 | 86 | 0.9 | 1.7 | 0.00 | 0.01 | 0.00 | 63 | 1018.7 |
| 20260508154817 | 58 | 299 | 0.0 | 0.9 | 0.00 | 0.01 | 0.00 | 67 | 1018.8 |
| 20260508153317 | 58 | 298 | 1.7 | 2.6 | 0.00 | 0.01 | 0.00 | 63 | 1018.9 |
| 20260508151841 | 58 | 298 | 0.9 | 2.6 | 0.00 | 0.01 | 0.00 | 65 | 1019.0 |
| 20260508150318 | 58 | 299 | 0.0 | 1.7 | 0.00 | 0.01 | 0.00 | 61 | 1019.0 |
| 20260508144821 | 57 | 300 | 0.0 | 0.0 | 0.00 | 0.01 | 0.00 | 64 | 1019.0 |
| 20260508143319 | 56 | 300 | 0.0 | 1.7 | 0.00 | 0.01 | 0.00 | 65 | 1019.0 |
| 20260508141818 | 55 | 117 | 0.0 | 0.0 | 0.00 | 0.01 | 0.00 | 67 | 1019.2 |
| 20260508140340 | 54 | 117 | 0.0 | 1.7 | 0.00 | 0.01 | 0.00 | 67 | 1019.2 |
| 20260508134817 | 54 | 117 | 0.0 | 0.0 | 0.00 | 0.02 | 0.00 | 68 | 1019.3 |
| 20260508133321 | 53 | 117 | 0.0 | 0.0 | 0.00 | 0.02 | 0.00 | 77 | 1019.4 |
| 20260508131820 | 52 | 117 | 0.0 | 0.0 | 0.00 | 0.02 | 0.00 | 78 | 1019.2 |
| 20260508130343 | 50 | 117 | 0.0 | 0.9 | 0.00 | 0.02 | 0.00 | 86 | 1019.2 |
| 20260508124842 | 48 | 69 | 0.0 | 0.0 | 0.00 | 0.06 | 0.00 | 90 | 1019.2 |
| 20260508123319 | 47 | 69 | 0.0 | 0.0 | 0.00 | 0.06 | 0.00 | 92 | 1018.9 |
| 20260508121821 | 46 | 69 | 0.0 | 0.0 | 0.00 | 0.06 | 0.00 | 93 | 1018.8 |
| 20260508120341 | 46 | 69 | 0.0 | 0.0 | 0.00 | 0.06 | 0.00 | 92 | 1018.7 |
| 20260508114822 | 45 | 69 | 0.0 | 0.0 | 0.00 | 0.11 | 0.00 | 92 | 1018.6 |
| 20260508113321 | 45 | 69 | 0.0 | 0.0 | 0.00 | 0.11 | 0.00 | 92 | 1018.4 |
| 20260508111823 | 45 | 69 | 0.0 | 0.0 | 0.00 | 0.11 | 0.00 | 92 | 1018.0 |
| 20260508110323 | 44 | 69 | 0.0 | 0.9 | 0.00 | 0.11 | 0.00 | 91 | 1017.6 |
| 20260508104825 | 44 | 69 | 0.0 | 0.0 | 0.00 | 0.17 | 0.00 | 91 | 1017.6 |
| 20260508103325 | 44 | 69 | 0.0 | 0.9 | 0.00 | 0.17 | 0.00 | 90 | 1017.4 |
| 20260508101843 | 45 | 69 | 0.0 | 0.0 | 0.00 | 0.17 | 0.00 | 90 | 1017.3 |
| 20260508100326 | 45 | 69 | 0.0 | 0.0 | 0.00 | 0.17 | 0.00 | 90 | 1017.0 |
| 20260508094824 | 46 | 69 | 0.0 | 0.0 | 0.00 | 0.18 | 0.00 | 89 | 1016.8 |
| 20260508093327 | 46 | 69 | 0.0 | 0.0 | 0.00 | 0.18 | 0.00 | 90 | 1016.8 |
| 20260508091825 | 46 | 69 | 0.0 | 0.0 | 0.00 | 0.18 | 0.00 | 90 | 1016.8 |
| 20260508090329 | 47 | 69 | 0.0 | 0.0 | 0.00 | 0.18 | 0.00 | 90 | 1016.8 |
| 20260508084828 | 47 | 69 | 0.0 | 0.0 | 0.00 | 0.18 | 0.00 | 90 | 1016.7 |
| 20260508083331 | 47 | 69 | 0.0 | 0.0 | 0.00 | 0.18 | 0.00 | 90 | 1016.7 |
| 20260508081829 | 48 | 69 | 0.0 | 0.9 | 0.00 | 0.18 | 0.00 | 89 | 1016.6 |
| 20260508080313 | 48 | 69 | 0.0 | 0.9 | 0.00 | 0.18 | 0.00 | 89 | 1016.5 |
| 20260508074811 | 48 | 69 | 0.0 | 0.9 | 0.00 | 0.19 | 0.00 | 89 | 1016.3 |
| 20260508073314 | 49 | 69 | 0.0 | 0.9 | 0.00 | 0.19 | 0.00 | 89 | 1016.3 |
| 20260508071813 | 49 | 69 | 0.0 | 0.9 | 0.00 | 0.19 | 0.00 | 88 | 1016.1 |
| 20260508070333 | 49 | 69 | 0.0 | 1.7 | 0.00 | 0.19 | 0.00 | 89 | 1016.2 |
| 20260508064814 | 49 | 69 | 0.0 | 0.9 | 0.00 | 0.20 | 0.00 | 89 | 1015.7 |
| 20260508063313 | 48 | 69 | 0.0 | 0.9 | 0.00 | 0.20 | 0.00 | 90 | 1015.8 |
| 20260508061816 | 48 | 69 | 0.0 | 0.9 | 0.00 | 0.20 | 0.00 | 91 | 1016.0 |
| 20260508060336 | 48 | 69 | 0.0 | 0.0 | 0.00 | 0.20 | 0.00 | 90 | 1016.0 |
| 20260508054817 | 48 | 69 | 0.0 | 0.9 | 0.00 | 0.26 | 0.00 | 90 | 1016.1 |
| 20260508053315 | 48 | 69 | 0.0 | 0.9 | 0.00 | 0.26 | 0.00 | 90 | 1016.2 |
| 20260508051819 | 48 | 69 | 0.0 | 0.9 | 0.00 | 0.26 | 0.00 | 90 | 1016.2 |
| 20260508050317 | 48 | 69 | 0.0 | 0.0 | 0.00 | 0.26 | 0.00 | 89 | 1016.0 |
| 20260508044819 | 48 | 69 | 0.0 | 0.0 | 0.00 | 0.33 | 0.00 | 89 | 1015.9 |
| 20260508043318 | 49 | 69 | 0.0 | 0.0 | 0.00 | 0.33 | 0.00 | 88 | 1015.9 |
| 20260508041816 | 49 | 69 | 0.0 | 0.0 | 0.00 | 0.33 | 0.00 | 88 | 1015.8 |
| 20260508040320 | 49 | 69 | 0.0 | 0.9 | 0.00 | 0.33 | 0.00 | 87 | 1015.8 |
| 20260508034816 | 50 | 69 | 0.0 | 0.9 | 0.00 | 0.33 | 0.33 | 87 | 1015.7 |
| 20260508033320 | 50 | 69 | 0.0 | 1.7 | 0.00 | 0.33 | 0.33 | 86 | 1015.8 |